Lid_Strength_Index
4 4 4 4 4 4 4 4 4 4 4 4 4 3 3 4 4 4 5 5 6 5 5 5 5 4 6 11 12 9 1 4 2 3 7 8 8 7 9 9 8 9 7 7 6 6 6
4 4 4 4 4 4 5 5 5 4 4 4 4 4 4 4 4 4 4 4 4 5 5 5 4 5 8 14 8 9 6 8 8 6 6 8 9 8 10 11 11 9 8 8 8 7 6
4 4 5 5 5 4 5 5 4 4 4 4 4 4 4 4 4 4 4 4 4 4 4 5 4 6 9 12 7 6 7 9 9 9 9 6 6 9 10 12 10 11 13 11 10 9 9
5 5 4 5 5 5 5 5 4 4 4 4 4 4 4 4 4 4 4 4 4 4 4 4 4 7 12 6 6 7 6 7 7 8 9 8 6 8 11 10 11 12 13 15 11 9 9
5 5 5 5 5 5 5 5 5 5 5 4 4 4 4 4 4 4 4 4 4 4 4 4 7 9 13 6 7 6 7 9 8 8 10 8 7 10 11 12 14 14 15 15 14 10 10
5 5 5 5 5 6 5 5 5 5 5 5 5 4 4 5 5 4 4 4 4 6 6 6 7 11 10 12 7 7 6 7 10 11 11 11 10 12 14 14 17 16 16 15 14 11 12
5 5 5 5 5 6 6 5 5 5 5 5 5 5 5 5 5 5 6 9 11 11 9 12 11 11 10 7 6 7 7 7 9 12 15 13 15 14 13 12 13 13 14 14 12 10 11
5 5 5 5 5 5 5 5 5 5 5 5 5 5 5 4 4 3 5 11 9 9 13 9 9 9 8 7 11 9 7 10 11 15 13 13 16 13 11 12 12 12 14 14 11 10 11
5 5 5 5 5 5 5 5 5 5 5 4 4 4 3 2 1 5 8 7 5 5 11 10 8 9 9 8 11 10 8 10 11 14 14 15 14 11 11 12 13 13 13 13 13 11 11
6 6 6 5 5 5 5 5 5 5 4 3 2 1 1 1 4 6 6 4 3 2 12 12 9 8 8 9 12 8 7 9 11 13 14 14 11 13 13 13 12 15 11 11 11 13 16
6 6 5 5 5 5 5 4 4 3 2 0 0 0 -0 0 3 4 4 2 2 5 19 9 7 4 6 10 10 10 7 8 11 12 13 15 13 14 14 13 10 13 10 11 12 14 14
6 6 5 5 5 4 4 4 3 1 -0 -0 -1 -0 -0 1 2 3 2 2 4 13 19 10 7 9 9 8 9 8 9 9 8 12 12 13 10 12 12 11 10 10 12 13 14 14 18
6 6 5 5 4 4 3 2 0 -0 -1 -0 -0 -0 0 1 4 3 3 5 14 18 9 11 10 9 9 11 9 10 11 13 13 15 15 14 13 12 11 13 12 13 16 20 20 20 19
6 5 5 4 4 3 2 1 -0 -1 -1 -1 -0 -0 1 1 3 2 4 10 17 12 11 8 9 9 12 11 11 11 12 13 11 13 14 16 17 13 11 13 14 14 15 19 21 20 17
5 5 5 4 3 2 1 0 -0 -0 -0 -0 0 4 5 3 2 1 7 14 14 12 9 10 9 12 13 12 12 12 13 12 11 11 16 15 15 10 10 11 11 15 15 13 16 15 17
5 5 4 3 2 1 0 -0 -1 -1 -1 -1 3 3 5 0 1 3 10 12 11 8 8 8 13 10 14 14 14 13 13 10 11 10 11 14 16 11 10 10 10 13 11 16 17 19 20
5 4 4 2 1 0 -0 -0 -1 -1 -1 0 6 7 5 -0 1 6 13 12 10 7 7 9 11 12 12 13 13 14 13 11 10 12 11 13 15 14 11 13 14 15 15 16 15 16 18
5 4 3 1 0 -0 -0 -1 -1 -1 -1 2 5 11 4 1 9 8 12 9 7 8 6 8 8 10 11 11 13 14 14 13 9 10 14 12 15 16 14 12 9 11 13 14 16 18 16
5 4 2 1 0 -0 -1 -1 -1 -1 -1 3 7 8 3 3 12 11 9 9 8 9 9 9 10 9 8 11 14 12 12 9 10 11 13 12 16 18 16 14 12 12 13 13 14 15 16
4 3 1 1 -0 -1 -1 -1 -1 -1 -1 5 9 11 8 6 7 9 11 11 11 7 8 8 9 8 10 10 11 13 12 10 9 10 8 10 15 16 17 16 13 14 12 12 14 17 15
4 3 1 0 -0 -1 -1 -1 -1 -1 -0 6 9 10 7 11 10 9 9 10 11 11 8 8 10 9 11 13 11 12 11 11 10 9 10 12 18 15 14 13 12 13 12 12 13 13 15
4 3 1 1 -0 -0 -0 -1 -1 -1 1 7 10 9 6 8 7 10 10 12 11 10 9 10 11 9 10 12 11 12 11 11 12 10 11 12 18 16 17 12 12 13 12 12 12 12 13
4 2 1 1 0 0 -0 -0 -1 -1 2 7 7 6 6 8 8 12 13 10 10 9 8 8 9 10 11 10 8 7 9 9 10 11 13 13 16 18 19 15 14 15 13 13 12 11 12
4 2 1 1 0 0 0 0 -0 -1 -0 3 4 4 8 11 10 9 9 8 9 8 10 8 7 9 7 6 5 6 9 10 10 10 10 14 15 17 19 16 19 13 10 10 12 11 11
4 3 2 1 1 0 0 -0 -0 -1 -1 2 3 4 6 10 9 9 9 9 8 7 9 8 7 6 6 8 11 13 12 13 11 11 11 12 14 18 19 18 15 13 11 12 13 13 10
4 3 2 1 1 1 1 0 -0 -1 -1 2 3 3 4 9 11 8 8 8 10 10 9 8 6 5 6 10 12 16 17 13 14 13 11 12 13 15 17 19 19 14 10 8 9 15 9
4 3 2 2 2 1 1 0 -0 -0 -1 1 3 3 4 8 7 7 9 9 7 8 10 8 8 8 6 11 14 15 16 11 16 16 15 15 15 17 18 19 15 10 10 9 15 15 10
5 3 2 2 2 1 1 1 0 -0 -0 2 5 4 4 7 8 7 6 8 7 7 10 8 9 9 10 12 13 13 14 13 14 13 14 15 16 17 16 18 19 10 10 13 12 10 9
6 4 3 2 2 2 2 1 1 0 0 1 5 5 4 7 8 6 6 5 6 5 7 7 8 8 8 11 11 12 13 12 13 16 11 15 12 14 14 14 9 9 9 8 9 10 10